Volver al catálogo

THORAD DELTA 1 DEB

ActivoSSO
NORAD 8185·DEBRIS·🇺🇸 United States

Lanzado Nov 15, 1974 desde Vandenberg Space Force Base

Loading…

Próximos Pases (próximas 24 horas)

TLE

ActualizadoSource: Space-Track

Época: Sep 14, 2026, 06:10 UTC

1 08185U 74089BB  26257.25746544 -.00000005  00000-0  27507-3 0  9999
2 08185 101.5308 172.3906 0070057 346.3107 168.6984 12.40526116345803

Sigue THORAD DELTA 1 DEB en tiempo real con AllMySat

Download on the App Store